EW8865 Weather Reports


time (UTC)temp
C
wind
direction
speed
KPH
gust
KPH
rain 1hr
cm
rain 24hr
cm
rain mn
cm
humidity
%
barometer
mb
20260905053004 11 261 1.6 4.8 0.00 0.10 0.00 86 1021.6
20260905052504 11 261 1.6 4.8 0.00 0.10 0.00 86 1021.6
20260905052004 11 263 3.2 4.8 0.00 0.10 0.00 86 1021.6
20260905051503 11 284 0.0 0.0 0.00 0.10 0.00 85 1021.5
20260905051004 11 284 0.0 0.0 0.00 0.10 0.00 84 1021.5
20260905050504 11 285 0.0 0.0 0.00 0.10 0.00 84 1021.3
20260905050003 11 285 0.0 3.2 0.00 0.10 0.00 84 1021.3
20260905045503 12 285 1.6 4.8 0.00 0.13 0.00 84 1021.2
20260905044504 12 275 4.8 12.9 0.00 0.13 0.00 84 1021.2
20260905043503 12 281 8.0 16.1 0.00 0.13 0.00 83 1021.1
20260905042504 12 288 11.3 19.3 0.00 0.13 0.00 83 1020.9
20260905042004 12 285 9.7 16.1 0.00 0.15 0.00 82 1020.9
20260905041004 12 299 9.7 16.1 0.00 0.18 0.00 82 1020.9
20260905040504 12 295 9.7 19.3 0.00 0.20 0.00 82 1020.9
20260905040004 12 301 9.7 16.1 0.00 0.20 0.00 82 1020.9
20260905034504 12 303 11.3 19.3 0.00 0.23 0.00 82 1020.8
20260905034003 12 307 8.0 19.3 0.00 0.25 0.00 82 1020.7
20260905033504 12 292 8.0 16.1 0.00 0.25 0.00 81 1020.7
20260905033003 12 277 4.8 19.3 0.00 0.28 0.00 81 1020.6
20260905032504 12 280 9.7 19.3 0.00 0.28 0.00 81 1020.5
20260905031004 12 298 11.3 20.9 0.00 0.30 0.00 81 1020.5
20260905030004 12 300 11.3 19.3 0.00 0.33 0.00 82 1020.4
20260905025503 12 288 9.7 16.1 0.00 0.33 0.00 82 1020.3
20260905025003 12 283 11.3 16.1 0.00 0.33 0.00 82 1020.3
20260905024504 12 297 9.7 20.9 0.00 0.36 0.00 82 1020.4
20260905024004 12 290 8.0 19.3 0.00 0.36 0.00 82 1020.3
20260905023503 12 287 9.7 19.3 0.00 0.36 0.00 83 1020.3
20260905023004 12 291 8.0 16.1 0.00 0.38 0.00 83 1020.3
20260905022503 12 264 3.2 11.3 0.00 0.38 0.00 83 1020.3
20260905022003 13 257 4.8 16.1 0.00 0.41 0.00 83 1020.2
20260905021503 13 280 9.7 19.3 0.00 0.41 0.00 83 1020.1
20260905021004 13 277 12.9 22.5 0.00 0.41 0.00 83 1020.0
20260905020504 13 275 9.7 22.5 0.00 0.41 0.00 83 1020.0
20260905020003 13 289 14.5 19.3 0.00 0.41 0.00 83 1020.0
20260905015503 13 289 16.1 22.5 0.00 0.41 0.00 83 1020.0
20260905015004 13 283 14.5 25.7 0.00 0.41 0.00 84 1019.8
20260905014503 13 286 12.9 20.9 0.00 0.41 0.00 84 1019.8
20260905014003 12 301 12.9 20.9 0.00 0.41 0.00 85 1019.9
20260905013503 12 289 8.0 19.3 0.00 0.41 0.00 86 1019.8
20260905012503 12 273 11.3 19.3 0.00 0.41 0.00 86 1019.7
20260905011503 12 269 14.5 20.9 0.00 0.41 0.00 87 1019.7
20260905011003 12 288 11.3 19.3 0.00 0.41 0.00 88 1019.6
20260905010503 12 286 9.7 19.3 0.00 0.41 0.00 89 1019.6
20260905010003 12 287 11.3 19.3 0.00 0.41 0.00 89 1019.6
20260905005504 12 277 8.0 16.1 0.00 0.41 0.00 89 1019.7
20260905005003 12 280 8.0 14.5 0.00 0.41 0.00 89 1019.6
20260905004004 12 254 6.4 11.3 0.00 0.41 0.00 88 1019.7
20260905003504 12 253 4.8 11.3 0.00 0.41 0.00 88 1019.6
20260905003003 12 241 4.8 9.7 0.00 0.41 0.00 88 1019.7
20260905002504 12 257 8.0 11.3 0.00 0.41 0.00 88 1019.7
20260905002004 12 254 4.8 11.3 0.00 0.41 0.00 88 1019.6
20260905001503 12 256 4.8 12.9 0.00 0.41 0.00 87 1019.6
20260905001003 12 261 1.6 4.8 0.00 0.41 0.00 87 1019.6
20260905000503 12 269 3.2 4.8 0.00 0.41 0.00 88 1019.6
20260905000003 12 267 3.2 14.5 0.00 0.41 0.00 88 1019.5
20260904234504 12 280 8.0 12.9 0.00 0.43 0.00 88 1019.3
20260904233003 12 284 4.8 4.8 0.00 0.43 0.00 87 1019.3
20260904232503 12 266 3.2 4.8 0.00 0.43 0.00 87 1019.2
20260904232003 12 265 3.2 9.7 0.00 0.43 0.00 87 1019.3
20260904231504 12 263 4.8 9.7 0.00 0.46 0.00 87 1019.3
20260904231004 12 244 3.2 11.3 0.00 0.46 0.00 87 1019.2
20260904230504 12 258 4.8 9.7 0.00 0.51 0.00 86 1019.1
20260904230003 12 269 6.4 11.3 0.00 0.51 0.00 86 1019.1
20260904225504 12 253 4.8 11.3 0.00 0.51 0.51 86 1019.1
20260904223503 13 246 4.8 8.0 0.00 0.51 0.51 85 1019.1
20260904223003 13 253 3.2 4.8 0.00 0.51 0.51 85 1019.0
20260904222503 13 247 4.8 12.9 0.00 0.51 0.51 85 1019.0
20260904222004 13 247 4.8 8.0 0.00 0.51 0.51 85 1018.9
20260904221504 13 273 4.8 12.9 0.00 0.51 0.51 85 1018.9
20260904220503 13 253 4.8 11.3 0.00 0.51 0.51 85 1018.9
20260904220003 13 250 4.8 11.3 0.00 0.51 0.51 85 1019.0
20260904215504 13 241 4.8 11.3 0.00 0.51 0.51 85 1019.0
20260904215003 13 253 8.0 12.9 0.00 0.53 0.51 85 1018.8
20260904214004 13 265 8.0 12.9 0.00 0.53 0.51 86 1018.7
20260904213504 13 266 8.0 12.9 0.00 0.53 0.51 86 1018.6
20260904213003 13 269 9.7 16.1 0.00 0.53 0.51 86 1018.5
20260904212504 13 251 9.7 14.5 0.00 0.53 0.51 87 1018.5
20260904212004 13 266 9.7 14.5 0.00 0.53 0.51 87 1018.5
20260904211003 13 269 6.4 12.9 0.00 0.53 0.51 87 1018.4
20260904210503 13 265 4.8 9.7 0.00 0.53 0.51 87 1018.4
20260904210004 13 260 8.0 14.5 0.00 0.56 0.51 87 1018.4
20260904205503 13 241 6.4 12.9 0.00 0.56 0.51 87 1018.4
20260904205004 13 249 6.4 11.3 0.00 0.61 0.51 87 1018.3
20260904204504 13 246 4.8 8.0 0.00 0.61 0.51 87 1018.2
20260904203504 13 265 4.8 11.3 0.00 0.61 0.51 86 1018.2
20260904203004 13 265 8.0 11.3 0.00 0.61 0.51 86 1018.2
20260904202503 13 262 4.8 11.3 0.00 0.61 0.51 85 1018.2
20260904201503 13 262 4.8 9.7 0.00 0.61 0.51 84 1018.2
20260904201003 13 260 6.4 9.7 0.00 0.61 0.51 84 1018.2
20260904200504 13 269 4.8 11.3 0.00 0.61 0.51 83 1018.2
20260904200004 14 264 4.8 4.8 0.00 0.61 0.51 83 1018.1
20260904195503 14 259 3.2 8.0 0.00 0.61 0.51 82 1018.1
20260904195004 14 253 4.8 9.7 0.00 0.61 0.51 82 1018.0
20260904194503 14 270 6.4 11.3 0.00 0.61 0.51 82 1018.0
20260904193504 15 252 4.8 12.9 0.00 0.61 0.51 81 1017.8
20260904193004 15 260 8.0 16.1 0.00 0.61 0.51 81 1017.8
20260904192504 15 261 9.7 14.5 0.00 0.61 0.51 81 1017.8
20260904192003 15 279 8.0 16.1 0.00 0.61 0.51 80 1017.8
20260904191504 15 273 11.3 19.3 0.00 0.61 0.51 80 1017.8
20260904191004 15 269 11.3 19.3 0.00 0.61 0.51 80 1017.7
20260904190504 15 288 11.3 19.3 0.00 0.61 0.51 79 1017.6
20260904190004 15 282 9.7 16.1 0.00 0.61 0.51 79 1017.6
20260904185503 15 270 9.7 22.5 0.00 0.61 0.51 79 1017.5
20260904185003 15 272 9.7 20.9 0.00 0.61 0.51 78 1017.5
20260904184504 15 270 14.5 19.3 0.00 0.61 0.51 78 1017.6
20260904184004 16 267 14.5 20.9 0.00 0.61 0.51 78 1017.5
20260904183003 16 259 11.3 19.3 0.00 0.61 0.51 77 1017.5
20260904182503 16 280 8.0 16.1 0.00 0.61 0.51 77 1017.5
20260904182003 16 287 9.7 20.9 0.00 0.61 0.51 77 1017.5
20260904181004 16 267 11.3 19.3 0.00 0.61 0.51 76 1017.3
20260904180004 16 262 12.9 27.4 0.00 0.61 0.51 75 1017.1
20260904175503 16 291 9.7 24.1 0.00 0.61 0.51 75 1017.1
20260904175004 16 268 14.5 25.7 0.00 0.61 0.51 75 1017.1
20260904174504 17 257 16.1 27.4 0.00 0.61 0.51 75 1017.1
20260904173504 17 274 11.3 19.3 0.00 0.61 0.51 74 1017.0
20260904172504 17 289 14.5 25.7 0.00 0.64 0.51 74 1017.1
20260904172004 17 269 11.3 20.9 0.00 0.64 0.51 75 1017.0
20260904171503 17 275 11.3 19.3 0.00 0.64 0.51 75 1017.0
20260904170003 16 281 14.5 24.1 0.00 0.64 0.51 75 1016.8
20260904165503 16 258 9.7 19.3 0.00 0.64 0.51 75 1016.8
20260904165004 16 286 11.3 22.5 0.00 0.64 0.51 75 1016.8
20260904164004 16 250 9.7 16.1 0.00 0.64 0.51 75 1016.6
20260904163503 16 261 16.1 22.5 0.00 0.64 0.51 74 1016.5
20260904162503 16 277 14.5 20.9 0.00 0.66 0.51 72 1016.4
20260904162004 17 273 16.1 25.7 0.00 0.66 0.51 72 1016.5
20260904161504 17 274 16.1 29.0 0.00 0.66 0.51 72 1016.4
20260904161003 17 284 12.9 27.4 0.00 0.66 0.51 72 1016.3
20260904160504 17 295 16.1 27.4 0.00 0.66 0.51 72 1016.2
20260904160003 17 285 14.5 22.5 0.00 0.66 0.51 72 1016.3
20260904155504 17 280 12.9 22.5 0.00 0.66 0.51 73 1016.3
20260904155004 17 260 14.5 32.2 0.00 0.66 0.51 72 1016.2
20260904154503 17 283 19.3 29.0 0.00 0.66 0.51 71 1016.2
20260904154004 17 271 17.7 25.7 0.00 0.66 0.51 71 1016.3
20260904153503 17 262 14.5 22.5 0.00 0.66 0.51 70 1016.3
20260904153004 17 271 14.5 20.9 0.00 0.66 0.51 70 1016.3
20260904152004 17 266 16.1 29.0 0.00 0.66 0.51 71 1016.1
20260904151003 17 257 9.7 19.3 0.00 0.66 0.51 72 1016.1
20260904150504 17 275 16.1 22.5 0.00 0.66 0.51 71 1016.0
20260904145504 18 247 14.5 29.0 0.00 0.66 0.51 70 1016.1
20260904145003 18 281 14.5 27.4 0.00 0.66 0.51 70 1015.9
20260904144504 18 272 19.3 27.4 0.00 0.66 0.51 70 1015.8
20260904144004 18 259 16.1 25.7 0.00 0.66 0.51 70 1015.8
20260904143003 18 262 16.1 32.2 0.00 0.66 0.51 70 1015.8
20260904142504 18 245 17.7 29.0 0.00 0.66 0.51 70 1015.8
20260904142004 18 277 12.9 29.0 0.00 0.66 0.51 70 1015.7
20260904141004 18 278 16.1 32.2 0.00 0.66 0.51 68 1015.4
20260904140503 18 280 19.3 32.2 0.00 0.66 0.51 69 1015.4
20260904140004 18 245 16.1 27.4 0.00 0.66 0.51 68 1015.5
20260904135503 18 257 16.1 27.4 0.00 0.66 0.51 69 1015.4
20260904135003 18 267 19.3 32.2 0.00 0.66 0.51 69 1015.3
20260904134504 18 286 14.5 22.5 0.00 0.66 0.51 69 1015.3
20260904134004 18 253 16.1 29.0 0.00 0.66 0.51 70 1015.3
20260904133503 18 276 16.1 29.0 0.00 0.66 0.51 70 1015.3
20260904133004 18 266 19.3 29.0 0.00 0.66 0.51 70 1015.3
20260904132503 18 260 17.7 25.7 0.00 0.66 0.51 71 1015.2
20260904132003 18 275 16.1 25.7 0.00 0.66 0.51 71 1015.0
20260904131504 18 257 19.3 27.4 0.00 0.66 0.51 71 1015.1
20260904131003 18 269 16.1 27.4 0.00 0.66 0.51 71 1015.1
20260904130504 18 268 14.5 29.0 0.00 0.66 0.51 69 1015.2
20260904130004 18 276 17.7 24.1 0.00 0.66 0.51 69 1015.2
20260904125504 17 268 16.1 29.0 0.00 0.66 0.51 71 1015.1
20260904125004 17 265 20.9 29.0 0.00 0.66 0.51 70 1015.2
20260904123004 17 250 14.5 25.7 0.00 0.66 0.51 71 1015.0
20260904122504 17 265 11.3 25.7 0.00 0.66 0.51 71 1015.0
20260904121503 17 282 14.5 24.1 0.00 0.66 0.51 69 1014.8
20260904121004 17 282 17.7 29.0 0.00 0.66 0.51 68 1014.7
20260904120504 17 290 16.1 32.2 0.00 0.66 0.51 68 1014.6
20260904115503 17 289 22.5 37.0 0.00 0.66 0.51 68 1014.4
20260904114503 18 276 19.3 32.2 0.00 0.66 0.51 71 1014.3
20260904114004 18 268 19.3 32.2 0.00 0.66 0.51 70 1014.2
20260904113503 18 268 16.1 24.1 0.00 0.66 0.51 70 1014.2
20260904113003 18 279 11.3 24.1 0.00 0.66 0.51 71 1014.2
20260904112503 18 299 17.7 24.1 0.00 0.66 0.51 70 1014.1
20260904112004 18 274 17.7 27.4 0.00 0.66 0.51 69 1013.9
20260904111004 18 292 19.3 32.2 0.00 0.66 0.51 69 1013.8
20260904110504 18 297 19.3 32.2 0.00 0.66 0.51 69 1013.9
20260904110003 18 280 19.3 32.2 0.00 0.66 0.51 68 1014.0
20260904105004 18 288 20.9 35.4 0.00 0.66 0.51 69 1013.7
20260904104504 18 279 22.5 32.2 0.00 0.66 0.51 72 1013.7
20260904103504 18 268 17.7 22.5 0.00 0.66 0.51 76 1013.4
20260904103003 18 271 11.3 22.5 0.00 0.66 0.51 76 1013.2
20260904102504 18 259 14.5 22.5 0.00 0.66 0.51 77 1013.4
20260904102004 17 273 16.1 24.1 0.00 0.66 0.51 77 1013.3
20260904101504 17 287 16.1 27.4 0.00 0.66 0.51 77 1013.3
20260904101004 17 287 16.1 25.7 0.00 0.66 0.51 79 1013.3
20260904100004 17 268 14.5 22.5 0.00 0.66 0.51 82 1013.1
20260904095504 17 278 14.5 25.7 0.00 0.66 0.51 84 1013.1
20260904095003 17 277 14.5 22.5 0.00 0.66 0.51 85 1013.2
20260904094003 17 267 16.1 27.4 0.00 0.66 0.51 86 1013.1
20260904093503 17 273 14.5 25.7 0.00 0.66 0.51 87 1013.1
20260904092504 16 249 14.5 24.1 0.00 0.66 0.51 88 1013.0
20260904092003 16 262 11.3 20.9 0.00 0.66 0.51 89 1013.0
20260904091503 16 272 9.7 24.1 0.00 0.66 0.51 89 1013.0
20260904091004 16 285 14.5 20.9 0.00 0.66 0.51 89 1012.9
20260904090504 16 262 12.9 20.9 0.00 0.66 0.51 89 1012.8
20260904090004 16 263 14.5 22.5 0.00 0.66 0.51 89 1012.6
20260904085503 16 271 17.7 25.7 0.00 0.66 0.51 90 1012.5
20260904085004 16 245 16.1 22.5 0.00 0.66 0.51 91 1012.5
20260904084503 16 260 12.9 24.1 0.00 0.66 0.51 91 1012.3
20260904084003 16 261 16.1 25.7 0.00 0.66 0.51 91 1012.3
20260904083503 16 272 14.5 19.3 0.00 0.66 0.51 92 1012.3
20260904083003 16 264 12.9 20.9 0.00 0.66 0.51 92 1012.3
20260904082504 16 250 9.7 19.3 0.00 0.66 0.51 92 1012.1
20260904082004 16 263 14.5 22.5 0.00 0.66 0.51 92 1012.3
20260904081004 15 285 12.9 20.9 0.00 0.66 0.51 92 1012.4
20260904080003 15 244 12.9 22.5 0.00 0.66 0.51 93 1012.3
20260904075503 15 257 8.0 19.3 0.00 0.66 0.51 93 1012.2
20260904075004 15 250 9.7 14.5 0.03 0.66 0.51 93 1012.2
20260904074503 15 260 11.3 19.3 0.03 0.66 0.51 93 1012.1
20260904073504 15 255 12.9 22.5 0.05 0.66 0.51 93 1011.9
20260904073003 15 261 14.5 22.5 0.05 0.69 0.51 93 1011.9
20260904072504 15 262 11.3 22.5 0.05 0.69 0.51 93 1012.0
20260904071503 15 248 14.5 20.9 0.05 0.69 0.51 93 1011.6
20260904071003 15 231 11.3 22.5 0.05 0.69 0.51 93 1011.6
20260904070504 15 236 14.5 22.5 0.05 0.69 0.51 93 1011.5
20260904070004 15 254 9.7 20.9 0.08 0.69 0.51 92 1011.5
20260904065503 15 264 9.7 22.5 0.08 0.69 0.51 92 1011.5
20260904065004 15 243 11.3 24.1 0.05 0.66 0.48 92 1011.5
20260904064003 16 265 9.7 16.1 0.05 0.66 0.48 92 1011.3
20260904063503 16 267 11.3 24.1 0.05 0.64 0.46 92 1011.4
20260904063004 16 296 9.7 20.9 0.05 0.64 0.46 92 1011.4
20260904062503 16 267 19.3 32.2 0.05 0.64 0.46 93 1011.3
20260904062004 16 263 8.0 19.3 0.05 0.64 0.46 93 1011.2
20260904061503 16 256 9.7 19.3 0.05 0.64 0.46 93 1011.2
20260904061004 16 271 8.0 19.3 0.05 0.61 0.43 93 1011.1
20260904060503 16 261 14.5 20.9 0.05 0.61 0.43 93 1011.0
20260904055504 16 263 16.1 29.0 0.05 0.61 0.43 92 1010.8
20260904055003 16 251 14.5 25.7 0.05 0.61 0.43 93 1010.7
20260904054504 16 249 11.3 22.5 0.05 0.61 0.43 93 1010.6
20260904053503 16 274 4.8 12.9 0.05 0.61 0.43 93 1010.4